Location: ??????
(42.0089°N, 44.3281°E)
Time: 17:21:37
(UTC+00:00)

USA 267 - Pass Details

Date: 05 June 2022
Orbit: 1101 x 1106 km, 123.0° (Epoch: 28 June)

Event Time Altitude Azimuth Distance (km) Brightness Sun altitude
Rises 17:00:01 0° 47° (NE) 3,924 6.0 -4.7°
Reaches altitude 10° 17:02:41 10° 40° (NE) 2,965 5.5 -5.1°
Maximum altitude 17:08:34 38° 336° (NNW) 1,631 4.9 -6.0°
Drops below altitude 10° 17:14:28 10° 271° (W) 2,961 6.4 -6.9°
Sets 17:17:08 0° 264° (W) 3,918 6.9 -7.2°
